| time (UTC) | temp C | wind direction | speed KPH | gust KPH | rain 1hr cm | rain 24hr cm | rain mn cm | humidity % | barometer mb |
| 20260504060105 | 5 | 0 | 0.0 | 3.2 | 0.00 | 0.00 | 0.00 | 68 | 1017.3 |
| 20260504050104 | 5 | 0 | 0.0 | 3.2 | 0.00 | 0.00 | 0.00 | 69 | 1017.6 |
| 20260504045604 | 5 | 0 | 1.6 | 3.2 | 0.00 | 0.00 | 0.00 | 69 | 1017.6 |
| 20260504044604 | 5 | 0 | 1.6 | 3.2 | 0.00 | 0.00 | 0.00 | 69 | 1017.6 |
| 20260504044105 | 5 | 0 | 1.6 | 3.2 | 0.00 | 0.00 | 0.00 | 69 | 1017.6 |
| 20260504042104 | 5 | 0 | 1.6 | 3.2 | 0.00 | 0.00 | 0.00 | 70 | 1017.6 |
| 20260504040105 | 6 | 0 | 1.6 | 3.2 | 0.00 | 0.00 | 0.00 | 68 | 1017.4 |
| 20260504035104 | 6 | 0 | 1.6 | 3.2 | 0.00 | 0.00 | 0.00 | 67 | 1017.3 |
| 20260504034104 | 6 | 0 | 1.6 | 4.8 | 0.00 | 0.00 | 0.00 | 66 | 1017.3 |
| 20260504032604 | 6 | 0 | 1.6 | 4.8 | 0.00 | 0.00 | 0.00 | 65 | 1017.3 |
| 20260504032105 | 6 | 0 | 3.2 | 4.8 | 0.00 | 0.00 | 0.00 | 65 | 1017.4 |
| 20260504031604 | 6 | 0 | 1.6 | 3.2 | 0.00 | 0.00 | 0.00 | 64 | 1017.5 |
| 20260504031104 | 6 | 0 | 0.0 | 4.8 | 0.00 | 0.00 | 0.00 | 63 | 1017.5 |
| 20260504030604 | 7 | 0 | 1.6 | 3.2 | 0.00 | 0.00 | 0.00 | 64 | 1017.5 |
| 20260504030105 | 7 | 0 | 0.0 | 1.6 | 0.00 | 0.00 | 0.00 | 63 | 1017.4 |
| 20260504025604 | 7 | 0 | 1.6 | 3.2 | 0.00 | 0.00 | 0.00 | 63 | 1017.4 |
| 20260504024604 | 7 | 0 | 3.2 | 4.8 | 0.00 | 0.00 | 0.00 | 64 | 1017.2 |
| 20260504024105 | 7 | 0 | 1.6 | 3.2 | 0.00 | 0.00 | 0.00 | 63 | 1017.2 |
| 20260504023105 | 7 | 0 | 0.0 | 3.2 | 0.00 | 0.00 | 0.00 | 62 | 1017.2 |
| 20260504021605 | 7 | 328 | 3.2 | 4.8 | 0.00 | 0.00 | 0.00 | 62 | 1017.1 |
| 20260504020606 | 7 | 319 | 3.2 | 3.2 | 0.00 | 0.00 | 0.00 | 61 | 1017.0 |
| 20260504015106 | 7 | 317 | 3.2 | 3.2 | 0.00 | 0.00 | 0.00 | 60 | 1017.0 |
| 20260504014606 | 7 | 317 | 1.6 | 3.2 | 0.00 | 0.00 | 0.00 | 60 | 1017.0 |
| 20260504014106 | 8 | 317 | 1.6 | 4.8 | 0.00 | 0.00 | 0.00 | 60 | 1017.0 |
| 20260504013106 | 8 | 314 | 1.6 | 4.8 | 0.00 | 0.00 | 0.00 | 60 | 1016.8 |
| 20260504011105 | 9 | 314 | 1.6 | 3.2 | 0.00 | 0.00 | 0.00 | 57 | 1016.7 |
| 20260504005105 | 10 | 314 | 0.0 | 0.0 | 0.00 | 0.00 | 0.00 | 52 | 1016.6 |
| 20260504004606 | 10 | 314 | 0.0 | 3.2 | 0.00 | 0.00 | 0.00 | 51 | 1016.6 |
| 20260504004105 | 10 | 314 | 1.6 | 4.8 | 0.00 | 0.00 | 0.00 | 50 | 1016.7 |
| 20260504003605 | 11 | 314 | 4.8 | 4.8 | 0.00 | 0.00 | 0.00 | 48 | 1016.6 |
| 20260504003106 | 11 | 319 | 1.6 | 3.2 | 0.00 | 0.00 | 0.00 | 47 | 1016.5 |
| 20260504002605 | 12 | 319 | 0.0 | 3.2 | 0.00 | 0.00 | 0.00 | 44 | 1016.5 |
| 20260504001605 | 12 | 319 | 0.0 | 0.0 | 0.00 | 0.00 | 0.00 | 42 | 1016.4 |
| 20260504001105 | 12 | 319 | 0.0 | 0.0 | 0.00 | 0.00 | 0.00 | 41 | 1016.4 |
| 20260504000106 | 13 | 319 | 0.0 | 0.0 | 0.00 | 0.00 | 0.00 | 39 | 1016.3 |
| 20260503235605 | 13 | 319 | 1.6 | 4.8 | 0.00 | 0.00 | 0.00 | 36 | 1016.2 |
| 20260503234605 | 13 | 319 | 4.8 | 8.0 | 0.00 | 0.00 | 0.00 | 34 | 1016.1 |
| 20260503234105 | 13 | 317 | 4.8 | 8.0 | 0.00 | 0.00 | 0.00 | 34 | 1016.1 |
| 20260503233605 | 13 | 317 | 4.8 | 8.0 | 0.00 | 0.00 | 0.00 | 33 | 1016.0 |
| 20260503232605 | 14 | 313 | 4.8 | 12.9 | 0.00 | 0.00 | 0.00 | 33 | 1016.0 |
| 20260503232105 | 14 | 323 | 4.8 | 9.7 | 0.00 | 0.00 | 0.00 | 34 | 1016.1 |
| 20260503231606 | 14 | 326 | 4.8 | 9.7 | 0.00 | 0.00 | 0.00 | 32 | 1016.0 |
| 20260503230605 | 15 | 319 | 4.8 | 11.3 | 0.00 | 0.00 | 0.00 | 32 | 1015.8 |
| 20260503230106 | 15 | 327 | 8.0 | 19.3 | 0.00 | 0.00 | 0.00 | 31 | 1015.8 |
| 20260503225105 | 15 | 323 | 9.7 | 16.1 | 0.00 | 0.00 | 0.00 | 32 | 1015.8 |
| 20260503223105 | 15 | 316 | 12.9 | 20.9 | 0.00 | 0.00 | 0.00 | 31 | 1015.9 |
| 20260503222105 | 15 | 325 | 11.3 | 20.9 | 0.00 | 0.00 | 0.00 | 30 | 1015.9 |
| 20260503215605 | 16 | 312 | 8.0 | 16.1 | 0.00 | 0.00 | 0.00 | 31 | 1016.0 |
| 20260503215105 | 16 | 306 | 8.0 | 20.9 | 0.00 | 0.00 | 0.00 | 31 | 1016.0 |
| 20260503214606 | 16 | 311 | 6.4 | 19.3 | 0.00 | 0.00 | 0.00 | 33 | 1016.1 |
| 20260503214105 | 16 | 328 | 12.9 | 22.5 | 0.00 | 0.00 | 0.00 | 31 | 1016.2 |
| 20260503213105 | 15 | 309 | 9.7 | 22.5 | 0.00 | 0.00 | 0.00 | 33 | 1016.1 |
| 20260503211605 | 15 | 307 | 9.7 | 19.3 | 0.00 | 0.00 | 0.00 | 32 | 1016.1 |
| 20260503211105 | 15 | 307 | 9.7 | 20.9 | 0.00 | 0.00 | 0.00 | 33 | 1016.0 |
| 20260503210605 | 15 | 315 | 12.9 | 20.9 | 0.00 | 0.00 | 0.00 | 32 | 1016.0 |
| 20260503210106 | 15 | 314 | 4.8 | 16.1 | 0.00 | 0.00 | 0.00 | 33 | 1016.1 |
| 20260503204606 | 15 | 316 | 9.7 | 19.3 | 0.00 | 0.00 | 0.00 | 34 | 1016.1 |
| 20260503203605 | 15 | 305 | 9.7 | 22.5 | 0.00 | 0.00 | 0.00 | 32 | 1016.2 |
| 20260503203105 | 15 | 295 | 11.3 | 19.3 | 0.00 | 0.00 | 0.00 | 34 | 1016.2 |
| 20260503202605 | 14 | 328 | 9.7 | 16.1 | 0.00 | 0.00 | 0.00 | 33 | 1016.2 |
| 20260503202105 | 14 | 316 | 14.5 | 32.2 | 0.00 | 0.00 | 0.00 | 31 | 1016.3 |
| 20260503201605 | 15 | 320 | 11.3 | 25.7 | 0.00 | 0.00 | 0.00 | 31 | 1016.4 |
| 20260503201105 | 15 | 317 | 19.3 | 24.1 | 0.00 | 0.00 | 0.00 | 34 | 1016.4 |
| 20260503195105 | 15 | 311 | 11.3 | 27.4 | 0.00 | 0.00 | 0.00 | 32 | 1016.7 |
| 20260503192605 | 15 | 319 | 16.1 | 27.4 | 0.00 | 0.00 | 0.00 | 31 | 1017.0 |
| 20260503191105 | 15 | 344 | 14.5 | 27.4 | 0.00 | 0.00 | 0.00 | 29 | 1017.2 |
| 20260503185105 | 15 | 316 | 12.9 | 22.5 | 0.00 | 0.00 | 0.00 | 31 | 1017.3 |
| 20260503184605 | 15 | 310 | 8.0 | 14.5 | 0.00 | 0.00 | 0.00 | 33 | 1017.3 |
| 20260503183105 | 14 | 313 | 11.3 | 19.3 | 0.00 | 0.00 | 0.00 | 32 | 1017.5 |
| 20260503182105 | 14 | 318 | 9.7 | 16.1 | 0.00 | 0.00 | 0.00 | 33 | 1017.5 |
| 20260503175605 | 13 | 307 | 11.3 | 27.4 | 0.00 | 0.00 | 0.00 | 34 | 1017.8 |
| 20260503174605 | 13 | 322 | 14.5 | 29.0 | 0.00 | 0.00 | 0.00 | 33 | 1017.9 |
| 20260503173106 | 13 | 310 | 8.0 | 19.3 | 0.00 | 0.00 | 0.00 | 36 | 1017.9 |
| 20260503140105 | 8 | 336 | 12.9 | 22.5 | 0.00 | 0.00 | 0.00 | 57 | 1019.5 |
| 20260503131105 | 7 | 312 | 9.7 | 19.3 | 0.00 | 0.00 | 0.00 | 59 | 1019.7 |
| 20260503110604 | 2 | 316 | 1.6 | 4.8 | 0.00 | 0.00 | 0.00 | 74 | 1018.9 |
| 20260503100105 | 2 | 317 | 1.6 | 3.2 | 0.00 | 0.00 | 0.00 | 75 | 1017.9 |
| 20260503090105 | 2 | 312 | 3.2 | 4.8 | 0.00 | 0.00 | 0.00 | 75 | 1017.4 |
| 20260503081604 | 3 | 313 | 1.6 | 4.8 | 0.00 | 0.00 | 0.00 | 71 | 1017.3 |
| 20260503081105 | 3 | 313 | 3.2 | 4.8 | 0.00 | 0.00 | 0.00 | 71 | 1017.3 |
| 20260503080605 | 3 | 313 | 4.8 | 8.0 | 0.00 | 0.00 | 0.00 | 71 | 1017.3 |